Back to catalog

CZ-6A DEB

AlivePO
NORAD 60719·DEBRIS·🇨🇳 China

Launched Aug 6, 2024 from Taiyuan Satellite Launch Center

Loading…

Next Passes (next 24 hours)

TLE

FreshSource: Space-Track

Epoch: Sep 14, 2026, 11:40 UTC

1 60719U 24140DY  26257.48658906  .00002456  00000-0  53314-3 0  9998
2 60719  89.2052 279.7574 0124323   4.8314 355.4062 14.53078832110544

Track CZ-6A DEB in real time with AllMySat

Download on the App Store